TimePDT,TemperatureF,Dew PointF,Humidity,Sea Level PressureIn,VisibilityMPH,Wind Direction,Wind SpeedMPH,Gust SpeedMPH,PrecipitationIn,Events,Conditions,WindDirDegrees,DateUTC
12:53 AM,48.9,35.1,59,30.31,10.0,North,9.2,-,N/A,,Clear,10,2012-10-03 07:53:00
1:53 AM,52.0,33.1,49,30.32,10.0,NNE,10.4,-,N/A,,Clear,30,2012-10-03 08:53:00
2:53 AM,51.1,34.0,52,30.32,10.0,NNE,8.1,-,N/A,,Clear,30,2012-10-03 09:53:00
3:53 AM,52.0,32.0,47,30.31,9.0,NE,13.8,-,N/A,,Clear,40,2012-10-03 10:53:00
4:53 AM,53.1,28.0,38,30.31,10.0,NE,15.0,-,N/A,,Clear,50,2012-10-03 11:53:00
5:53 AM,53.1,26.1,35,30.31,10.0,NE,17.3,27.6,N/A,,Clear,50,2012-10-03 12:53:00
6:53 AM,54.0,25.0,33,30.32,10.0,ENE,13.8,23.0,N/A,,Clear,60,2012-10-03 13:53:00
7:53 AM,54.0,26.1,34,30.33,10.0,ENE,10.4,-,N/A,,Clear,60,2012-10-03 14:53:00
8:53 AM,57.0,27.0,32,30.35,10.0,ENE,13.8,23.0,N/A,,Clear,60,2012-10-03 15:53:00
9:53 AM,60.1,28.0,30,30.35,10.0,ENE,10.4,17.3,N/A,,Clear,70,2012-10-03 16:53:00
10:53 AM,61.0,27.0,27,30.34,10.0,ENE,18.4,24.2,N/A,,Clear,60,2012-10-03 17:53:00
11:53 AM,63.0,27.0,26,30.34,10.0,NE,10.4,23.0,N/A,,Clear,50,2012-10-03 18:53:00
12:53 PM,64.9,28.9,26,30.33,10.0,NE,10.4,21.9,N/A,,Clear,40,2012-10-03 19:53:00
1:53 PM,64.9,27.0,24,30.32,10.0,NE,18.4,26.5,N/A,,Clear,40,2012-10-03 20:53:00
2:53 PM,66.0,26.1,22,30.30,10.0,NE,17.3,21.9,N/A,,Clear,40,2012-10-03 21:53:00
3:53 PM,66.0,27.0,23,30.29,10.0,NE,13.8,21.9,N/A,,Clear,50,2012-10-03 22:53:00
4:53 PM,64.9,26.1,23,30.29,10.0,NE,10.4,-,N/A,,Clear,40,2012-10-03 23:53:00
5:53 PM,63.0,27.0,26,30.28,10.0,NNE,9.2,-,N/A,,Clear,30,2012-10-04 00:53:00
6:53 PM,57.9,27.0,31,30.27,10.0,North,5.8,-,N/A,,Clear,360,2012-10-04 01:53:00
7:53 PM,55.9,27.0,33,30.27,10.0,North,11.5,-,N/A,,Clear,360,2012-10-04 02:53:00
8:53 PM,53.1,28.0,38,30.27,10.0,NNE,8.1,-,N/A,,Clear,20,2012-10-04 03:53:00
9:53 PM,52.0,28.0,40,30.27,10.0,North,8.1,-,N/A,,Clear,360,2012-10-04 04:53:00
10:53 PM,52.0,28.0,40,30.26,10.0,North,9.2,-,N/A,,Clear,360,2012-10-04 05:53:00
11:53 PM,45.0,30.9,58,30.26,10.0,NE,3.5,-,N/A,,Clear,50,2012-10-04 06:53:00